sat.trackr.live / text

‹ back to catalog

HULIANWANG DIGUI-30

NORAD 64283 · 2025-121A

PAYLOAD ACTIVE UNKNOWN

§ Identity

Operator
Country
PRC
Launch date
2025-06-05
Launch site
TAISC
Launch vehicle
Mass (kg)
RCS (m²)

External: N2YO · Heavens-Above · Gunter

§ Orbital elements

Epoch: 2026-09-21T20:52:48.876960Z

Period
108.73 min
Inclination
86.5042°
Eccentricity
0.0001684
Mean motion
13.24410822 rev/d
Perigee alt
1,166.6 km
Apogee alt
1,169.2 km
Semi-major
7,546.1 km
B*
4.3810e-5
RAAN
340.9575°
Arg perigee
109.3733°
Mean anomaly
250.7583°
Rev number
6,295

§ Raw data

HULIANWANG DIGUI-301 64283U 25121A   26264.87001015  .00000033  00000+0  43810-4 0  99912 64283  86.5042 340.9575 0001684 109.3733 250.7583 13.24410822 62957

JSON: /api/v1/satellites/64283 · /tle

For live sub-satellite position, see the globe view (requires WebGL).

§ Visibility from observer

Set your observer location to see the next 7 days of passes ≥ 10°. The values pass through the URL so the page stays shareable.

No JS? Fill the form by hand. The geolocation button needs JavaScript.